Location: Austin
(30.3000°N, 97.7500°W)
Time: 00:59:05
(UTC-05:00)

Cosmos 1666 - Pass Details

Date: 15 May 2024
Orbit: 441 x 455 km, 82.5° (Epoch: 29 May)

Event Time Altitude Azimuth Distance (km) Brightness Sun altitude
Rises 20:42:59 0° 8° (N) 2,461 6.4 -5.6°
Reaches altitude 10° 20:45:17 10° 21° (NNE) 1,582 5.3 -6.1°
Maximum altitude 20:48:15 27° 80° (E) 903 3.5 -6.7°
Drops below altitude 10° 20:51:11 10° 140° (SE) 1,564 4.6 -7.2°
Enters shadow 20:51:51 - 145° (SE) 1,809 4.9 -7.3°
